Regional Weather Roundup
Issued by NWS Cleveland, OH

Home | Current Version | Previous Version | Text Only | Print | Product List | Glossary Off
Versions: 1 2 3 4 5 6 7 8 9 10 11 12 13 14 15 16 17 18 19 20 21 22 23 24 25 26 27 28 29 30 31 32 33 34 35 36 37 38 39 40 41 42 43 44 45 46 47 48 49 50

000
ASUS41 KCLE 162210
RWRCLE
OHIO REGIONAL WEATHER ROUNDUP
NATIONAL WEATHER SERVICE CLEVELAND, OH
600 PM EDT WED APR 16 2014

NOTE: "FAIR" INDICATES FEW OR NO CLOUDS BELOW 12,000 FEET WITH NO
SIGNIFICANT WEATHER AND/OR OBSTRUCTIONS TO VISIBILITY.

OHZ001>008-015>018-024>027-034-035-043-044-162300-
   NORTHWEST OHIO

CITY           SKY/WX    TMP DP  RH WIND       PRES   REMARKS
DEFIANCE       SUNNY     46  22  38 SE13G18   30.33F
FINDLAY        SUNNY     45  25  45 SE10      30.33F
TOLEDO EXPRESS MOSUNNY   44  23  43 SE12G22   30.35F
TOLEDO EXEC    MOSUNNY   44  28  53 E10G20    30.37F
LIMA           SUNNY     47  25  42 SE13      30.31F
$$

OHZ009>014-019>023-028>033-038-089-162300-
   NORTHEAST OHIO

CITY           SKY/WX    TMP DP  RH WIND       PRES   REMARKS
CLE-HOPKINS    MOSUNNY   41  24  51 NE15      30.41F
CLE-LAKEFRONT  MOSUNNY   37  27  67 NE17G23   30.40S
CUY CO. ARPT   MOSUNNY   43  19  39 SE9       30.41S
LORAIN-ELYRIA  MOSUNNY   45  20  36 S12       30.38F
ASHTABULA      SUNNY     40  18  41 VRB3      30.42F
AKRON-CANTON   MOSUNNY   41  16  36 SE6       30.38F
WOOSTER        SUNNY     44  22  41 SE9       30.38S
MANSFIELD      SUNNY     43  22  43 E9        30.34F
YOUNGSTOWN     MOSUNNY   42  16  34 VRB7      30.39F
$$

OHZ042-051>053-060>062-070>072-077>081-162300-
  SOUTHWEST OHIO

CITY           SKY/WX    TMP DP  RH WIND       PRES   REMARKS
CINC-COVINGTON MOSUNNY   50  21  32 SE9       30.27F
CINC-LUNKEN    SUNNY     50  20  30 SE8       30.30F
HAMILTON       SUNNY     52  22  30 SE7       30.30F
DAYTON         PTSUNNY   48  22  35 E18       30.30F
WRIGHT-PAT AFB SUNNY     49  21  34 SE13      30.31F
DAYTON GENERAL SUNNY     49  22  34 SE12      30.29F
WILMINGTON     MOSUNNY   48  19  31 E10       30.30F
$$

OHZ036-037-039>041-045>050-054>059-063>069-073>076-082>088-162300-
  CENTRAL AND SOUTHEAST OHIO

CITY           SKY/WX    TMP DP  RH WIND       PRES   REMARKS
COLUMBUS       MOSUNNY   49  21  33 E9        30.34F
OSU AIRPORT    SUNNY     47  21  35 SE13      30.33F
BOLTON FIELD   SUNNY     48  25  40 E6        30.33F
RICKENBACK AFB SUNNY     51  15  23 E10       30.32F
NEWARK         SUNNY     48  18  30 SE12      30.34F
MARION         SUNNY     45  23  42 SE10G24   30.33F
LANCASTER      SUNNY     48  21  34 E10       30.33F
ZANESVILLE     SUNNY     47  18  31 E9        30.36F
NEW PHILLY     SUNNY     45  16  31 SE12      30.39S
$$



USA.gov is the U.S. government's official web portal to all federal, state and local government web resources and services.